Terminal Aerodrome Forecast
Issued by NWS Detroit/Pontiac, MI

Home | Current Version | Previous Version | Text Only | Print | Product List | Glossary On
Versions: 1 2 3 4 5 6 7 8 9 10 11 12 13 14 15 16 17 18 19 20 21 22 23 24 25 26 27 28 29 30 31 32 33 34 35 36 37 38 39 40 41 42 43 44 45 46 47 48 49 50
516
FTUS43 KDTX 151120
TAFDTW
TAF
KDTW 151120Z 1512/1618 19006KT P6SM BKN090
     FM151500 21011G22KT P6SM VCSH BKN060 BKN120
     FM152000 24010G18KT 5SM -SHRA BR BKN045 BKN200
     FM160000 26005KT 4SM -SHRA BR OVC025=

USA.gov is the U.S. government's official web portal to all federal, state and local government web resources and services.